Regional Weather Roundup
Issued by NWS

Home | Current Version | Previous Version | Text Only | Print | Product List | Glossary Off
Versions: 1 2 3 4 5 6 7 8 9 10 11 12 13 14 15 16 17 18 19 20 21 22 23 24 25 26 27 28 29 30 31 32 33 34 35 36 37 38 39 40 41 42 43 44 45 46 47 48 49 50

285
ASUS44 KMEG 221500
RWRTN
TENNESSEE HOURLY STATE WEATHER ROUNDUP
NATIONAL WEATHER SERVICE MEMPHIS TN
1000 AM CDT SAT JUL 22 2017

TNZ002-004-019-021-049-052-054-088>092-221600-
WEST TENNESSEE

CITY           SKY/WX    TMP DP  RH WIND       PRES   REMARKS
MEMPHIS INTL   SUNNY     91  77  63 W9        30.00R HX 104
NWS MEMPHIS      N/A     90 N/A N/A MISG        N/A
JACKSON        SUNNY     90  77  65 SW7       29.99S HX 103
$$

TNZ008-025-027-028-033-062-065-066-221600-
NORTH MIDDLE TENNESSEE

CITY           SKY/WX    TMP DP  RH WIND       PRES   REMARKS
NASHVILLE      SUNNY     92  75  57 W6        30.00S HX 103
CLARKSVILLE    SUNNY     89  76  65 SW8       29.99R HX 100
SMYRNA         SUNNY     91  77  63 VRB5      30.01S HX 104
CROSSVILLE     SUNNY     84  70  62 W7        30.10S
$$

TNZ061-075-076-078-094-096-097-221600-
SOUTH MIDDLE TENNESSEE

CITY           SKY/WX    TMP DP  RH WIND       PRES   REMARKS
TULLAHOMA      SUNNY     88  73  62 SW6       30.05S HX  96
WINCHESTER     SUNNY     90  73  58 CALM      30.04S HX  98
MCMINNVILLE    SUNNY     90  77  66 SW7       30.04S HX 102
$$

TNZ017-018-042-046-047-221600-
NORTHEAST TENNESSEE

CITY           SKY/WX    TMP DP  RH WIND       PRES   REMARKS
TRI CITIES     SUNNY     86  72  62 VRB5      30.06F HX  92
$$

TNZ012-013-036-069-073-074-221600-
CENTRAL EAST TENNESSEE

CITY           SKY/WX    TMP DP  RH WIND       PRES   REMARKS
KNOXVILLE      MOSUNNY   87  71  58 SW10      30.02F HX  93
OAK RIDGE      SUNNY     88  72  58 W6        30.04F HX  94
GATLINBURG     SUNNY     90  72  55 VRB5      30.02F HX  96
$$

TNZ083-085-099-221600-
SOUTHEAST TENNESSEE

CITY           SKY/WX    TMP DP  RH WIND       PRES   REMARKS
CHATTANOOGA    MOSUNNY   88  72  58 VRB3      30.03F HX  94
$$

SKY/WX REPORTED AS FAIR MEANS FEW OR NO CLOUDS BELOW
12 THOUSAND FEET.





USA.gov is the U.S. government's official web portal to all federal, state and local government web resources and services.